Dalaman, Turkey

3:52 AM +03 on January 23, 2017 (GMT +0300)
Dalaman

Weather History for LTBS - November, 2012

Change the Weather History Date:

Friday, November 16, 2012

  Actual Average Record
Temperature  
Mean Temperature 66 °F -  
Max Temperature 74 °F 68 °F 75 °F (1996)
Min Temperature 57 °F 49 °F 39 °F (2005)
Growing Degree Days 16 (Base 50)    
Moisture  
Dew Point 58 °F    
Average Humidity 81    
Maximum Humidity 94    
Minimum Humidity 47    
Precipitation  
Precipitation 0.00 in - - ()
Sea Level Pressure  
Sea Level Pressure 30.08 in    
Wind  
Wind Speed 5 mph ()    
Max Wind Speed 10 mph    
Max Gust Speed -    
Visibility 6.2 miles    
Events      
Averages and records for this station are not official NWS values.
T = Trace of Precipitation, MM = Missing Value Source: Averaged Metar Reports

Daily Weather History Graph

Daily Weather History Graph

Search for Another Location

Airport or City:

Trip Planner

Search our weather history database for the weather conditions in past years. The results will help you decide how hot, cold, wet, or windy it might be!

Date:

Astronomy

Nov. 16, 2012 Rise Set
Actual Time 6:44 AM EET 4:55 PM EET
Civil Twilight 6:16 AM EET 5:22 PM EET
Nautical Twilight 5:45 AM EET 5:53 PM EET
Astronomical Twilight 5:14 AM EET 6:24 PM EET
Moon 9:18 AM EET (11/16) 7:33 PM EET (11/16)
Length of Visible Light 11h 06m
Length of Day
10h 11m
Waxing Crescent, 9% of the Moon is Illuminated
Nov 16
Waxing Crescent
Nov 20
First Quarter
Nov 28
Full
Dec 6
Last Quarter
Dec 13
New

Hourly Weather History & Observations

Time (EET) Temp. Dew Point Humidity Pressure Visibility Wind Dir Wind Speed Gust Speed Precip Events Conditions
12:20 AM 64.4 °F 60.8 °F 88% 30.09 in 6.2 mi Variable 4.6 mph - N/A   Mostly Cloudy
12:50 AM 62.6 °F 60.8 °F 94% 30.09 in 6.2 mi East 3.5 mph - N/A   Mostly Cloudy
1:20 AM 62.6 °F 60.8 °F 94% 30.09 in 6.2 mi NNE 3.5 mph - N/A   Mostly Cloudy
1:50 AM 62.6 °F 60.8 °F 94% 30.09 in 6.2 mi North 3.5 mph - N/A   Mostly Cloudy
2:00 AM 63 °F 61 °F 90% 30.11 in 6 mi North 3.5 mph - -   Partly Cloudy
2:20 AM 62.6 °F 60.8 °F 94% 30.09 in 6.2 mi North 3.5 mph - N/A   Mostly Cloudy
2:50 AM 62.6 °F 60.8 °F 94% 30.09 in 6.2 mi NE 3.5 mph - N/A   Mostly Cloudy
3:20 AM 62.6 °F 60.8 °F 94% 30.09 in 6.2 mi East 4.6 mph - N/A   Mostly Cloudy
3:50 AM 62.6 °F 60.8 °F 94% 30.06 in 6.2 mi Variable 2.3 mph - N/A   Mostly Cloudy
4:20 AM 62.6 °F 60.8 °F 94% 30.06 in 6.2 mi NNE 4.6 mph - N/A   Mostly Cloudy
4:50 AM 62.6 °F 60.8 °F 94% 30.06 in 6.2 mi North 4.6 mph - N/A   Mostly Cloudy
5:20 AM 60.8 °F 59.0 °F 94% 30.06 in 6.2 mi ENE 3.5 mph - N/A   Mostly Cloudy
5:50 AM 60.8 °F 59.0 °F 94% 30.09 in 6.2 mi East 5.8 mph - N/A   Mostly Cloudy
6:20 AM 60.8 °F 59.0 °F 94% 30.09 in 6.2 mi NNE 6.9 mph - N/A   Mostly Cloudy
6:50 AM 59.0 °F 57.2 °F 94% 30.09 in 6.2 mi NNE 4.6 mph - N/A   Scattered Clouds
7:20 AM 59.0 °F 57.2 °F 94% 30.09 in 6.2 mi ENE 6.9 mph - N/A   Scattered Clouds
7:50 AM 59.0 °F 57.2 °F 94% 30.12 in 6.2 mi ENE 4.6 mph - N/A   Scattered Clouds
8:00 AM 58 °F 56 °F 92% 30.13 in 6 mi ENE 4.6 mph - -   Scattered Clouds
8:20 AM 60.8 °F 57.2 °F 88% 30.12 in 6.2 mi East 5.8 mph - N/A   Scattered Clouds
8:50 AM 62.6 °F 57.2 °F 82% 30.12 in 6.2 mi ENE 5.8 mph - N/A   Scattered Clouds
9:20 AM 66.2 °F 57.2 °F 73% 30.12 in 6.2 mi NNE 8.1 mph - N/A   Scattered Clouds
9:50 AM 68.0 °F 53.6 °F 60% 30.12 in 6.2 mi North 8.1 mph - N/A   Scattered Clouds
10:20 AM 69.8 °F 53.6 °F 56% 30.09 in 6.2 mi NNE 8.1 mph - N/A   Scattered Clouds
10:50 AM 71.6 °F 55.4 °F 57% 30.09 in 6.2 mi NNE 8.1 mph - N/A   Scattered Clouds
11:20 AM 71.6 °F 55.4 °F 57% 30.09 in 6.2 mi North 8.1 mph - N/A   Scattered Clouds
11:50 AM 73.4 °F 53.6 °F 50% 30.09 in 6.2 mi NE 8.1 mph - N/A   Scattered Clouds
12:20 PM 73.4 °F 51.8 °F 47% 30.06 in 6.2 mi NW 3.5 mph - N/A   Mostly Cloudy
12:50 PM 71.6 °F 55.4 °F 57% 30.06 in 6.2 mi SSW 4.6 mph - N/A   Mostly Cloudy
1:20 PM 71.6 °F 55.4 °F 57% 30.06 in 6.2 mi WSW 5.8 mph - N/A   Mostly Cloudy
1:50 PM 69.8 °F 55.4 °F 60% 30.06 in 6.2 mi SW 6.9 mph - N/A   Mostly Cloudy
2:00 PM 71 °F 55 °F 47% 30.08 in 6 mi SW 6.9 mph - -   Partly Cloudy
2:20 PM 69.8 °F 55.4 °F 60% 30.06 in 6.2 mi WSW 5.8 mph - N/A   Mostly Cloudy
2:50 PM 69.8 °F 59.0 °F 68% 30.06 in 6.2 mi Variable 1.2 mph - N/A   Mostly Cloudy
3:20 PM 68.0 °F 59.0 °F 73% 30.06 in 6.2 mi ENE 2.3 mph - N/A   Mostly Cloudy
3:50 PM 66.2 °F 59.0 °F 78% 30.06 in 6.2 mi ESE 3.5 mph - N/A   Mostly Cloudy
4:20 PM 66.2 °F 57.2 °F 73% 30.06 in 6.2 mi Calm Calm - N/A   Mostly Cloudy
4:50 PM 66.2 °F 59.0 °F 78% 30.06 in 6.2 mi Variable 1.2 mph - N/A   Mostly Cloudy
5:20 PM 66.2 °F 60.8 °F 83% 30.06 in 6.2 mi West 10.4 mph - N/A   Mostly Cloudy
5:50 PM 66.2 °F 60.8 °F 83% 30.06 in 6.2 mi West 4.6 mph - N/A   Mostly Cloudy
6:20 PM 64.4 °F 60.8 °F 88% 30.06 in 6.2 mi NE 6.9 mph - N/A   Mostly Cloudy
6:50 PM 64.4 °F 60.8 °F 88% 30.06 in 6.2 mi NE 6.9 mph - N/A   Mostly Cloudy
7:20 PM 62.6 °F 59.0 °F 88% 30.06 in 6.2 mi NE 5.8 mph - N/A   Mostly Cloudy
7:50 PM 64.4 °F 59.0 °F 83% 30.06 in 6.2 mi NNE 6.9 mph - N/A   Mostly Cloudy
8:00 PM 64 °F 58 °F 75% 30.08 in 6 mi NNE 6.9 mph - -   Partly Cloudy
8:20 PM 62.6 °F 59.0 °F 88% 30.06 in 6.2 mi NNE 8.1 mph - N/A   Mostly Cloudy
8:50 PM 62.6 °F 59.0 °F 88% 30.06 in 6.2 mi NNE 8.1 mph - N/A   Mostly Cloudy
9:20 PM 62.6 °F 57.2 °F 82% 30.06 in 6.2 mi East 6.9 mph - N/A   Mostly Cloudy
9:50 PM 60.8 °F 57.2 °F 88% 30.06 in 6.2 mi East 5.8 mph - N/A   Mostly Cloudy
10:20 PM 59.0 °F 57.2 °F 94% 30.06 in 6.2 mi East 6.9 mph - N/A   Scattered Clouds
10:50 PM 57.2 °F 55.4 °F 94% 30.04 in 6.2 mi NNE 5.8 mph - N/A   Scattered Clouds
11:20 PM 57.2 °F 55.4 °F 94% 30.04 in 6.2 mi NE 5.8 mph - N/A   Scattered Clouds
11:50 PM 57.2 °F 55.4 °F 94% 30.04 in 6.2 mi NE 6.9 mph - N/A   Scattered Clouds